Tracking 18942 objects as of 17-Jan-2018
HD Live streaming from Space Station
objects crossing your sky now

FENGYUN 1C DEB

Track FENGYUN 1C DEB now!
10-day predictions


NORAD ID: 30356
Int'l Code: 1999-025ABT
Perigee: 833.9 km
Apogee: 916.9 km
Inclination: 98.9 °
Period: 102.3 minutes
Semi major axis: 7246 km
RCS: 0.038 m2 (small)
Launch date: May 10, 1999
Source: People's Republic of China (PRC)
Launch site: Taiyaun Space Center, China (TSC)

Note: This is SATELLITE DEBRIS
aabbcc
Your satellite tracking list
Your tracking list is empty




NASA's NSSDC Master Catalog

Two Line Element Set (TLE):
1 30356U 99025ABT 18016.10579274  .00000069  00000-0  65809-4 0  9990
2 30356  98.8779  62.6368 0057300 171.9768 242.2644 14.07408632563634
Source of the keplerian elements: AFSPC